Location: Unspecified
(48.7670°N, 0.0000°E)
Time: 10:17:45
(UTC+00:00)

Courier 1B - Pass Details

Date: 18 June 2019
Orbit: 963 x 1209 km, 28.3° (Epoch: 19 July)

Event Time Altitude Azimuth Distance (km) Brightness Sun altitude
Rises 20:09:47 0° 217° (SW) 3,978 10.7 -1.3°
Reaches altitude 10° 20:14:29 10° 191° (S) 3,069 9.8 -1.9°
Maximum altitude 20:17:33 13° 167° (SSE) 2,883 9.5 -2.3°
Drops below altitude 10° 20:20:41 10° 143° (SE) 3,118 9.5 -2.7°
Enters shadow 20:24:10 - 123° (ESE) 3,774 9.9 -3.1°
Sets 20:25:32 0° 117° (ESE) 4,104 - -3.3°
